Lapse_Rate
7.0 6.9 6.7 6.5 6.5 6.5 7.0 7.8 8.3 8.6 8.4 8.5 8.5 8.5 8.2 8.7 8.8 8.4 8.4 8.5 8.3 8.2 8.0 8.0 8.1 8.0 7.7 7.7 7.7 7.7 7.6 7.5 7.3 7.2 7.0 6.8 6.6 6.4 6.2 6.1 5.9 5.8 5.7 5.7 5.6 5.5 5.5 5.5 5.5
6.8 6.9 6.8 6.4 6.1 6.3 7.1 8.1 8.4 8.3 8.5 7.9 8.4 8.2 8.5 8.7 8.8 8.6 8.5 8.5 8.3 8.1 8.0 7.8 8.0 8.1 7.8 7.8 7.7 7.7 7.7 7.6 7.5 7.3 7.2 7.1 7.0 6.8 6.6 6.4 6.2 6.1 6.0 5.9 5.8 5.8 5.8 5.8 5.7
6.7 6.7 6.7 6.4 6.1 6.7 7.6 8.0 7.9 8.3 8.3 8.4 8.2 8.2 8.3 8.1 8.5 8.1 8.1 8.3 8.2 8.0 8.0 7.8 7.7 7.9 7.9 7.8 7.8 7.8 7.7 7.8 7.7 7.6 7.4 7.2 7.0 6.9 6.7 6.6 6.5 6.4 6.3 6.2 6.1 6.0 5.9 5.9 5.9
6.8 6.7 6.4 6.4 6.6 7.4 7.9 7.8 7.6 8.1 7.9 8.1 8.2 7.8 8.0 7.9 7.9 7.8 7.8 7.6 7.7 7.7 7.7 7.5 7.5 7.7 7.8 7.7 7.6 7.7 7.7 7.7 7.7 7.5 7.4 7.3 7.1 7.0 6.9 6.7 6.6 6.5 6.4 6.3 6.2 6.1 6.0 5.9 5.9
6.5 6.5 6.3 6.3 7.0 7.6 7.6 7.8 7.3 7.8 7.7 7.7 8.0 7.6 7.6 7.6 7.4 7.4 7.5 7.6 7.7 7.7 7.5 7.5 7.5 7.6 7.7 7.7 7.6 7.6 7.7 7.8 7.8 7.8 7.6 7.5 7.3 7.1 6.8 6.6 6.5 6.4 6.2 6.2 6.2 6.3 6.3 6.3 6.3
6.3 6.3 6.1 6.5 7.4 7.6 7.7 7.6 7.4 7.3 7.0 7.6 7.8 7.2 7.1 7.3 7.2 7.3 7.4 7.5 7.7 7.6 7.5 7.5 7.5 7.6 7.6 7.6 7.7 7.7 7.9 7.9 7.9 7.9 7.8 7.6 7.4 7.1 6.8 6.5 6.4 6.3 6.2 6.3 6.3 6.5 6.6 6.7 6.7
6.4 6.2 6.3 6.7 7.3 7.6 7.9 7.7 7.6 7.6 7.4 6.9 7.3 7.3 6.6 6.9 7.2 7.2 7.5 7.6 7.6 7.5 7.4 7.6 7.7 7.7 7.6 7.5 7.6 7.7 7.7 7.8 7.8 7.8 7.8 7.7 7.4 7.1 6.9 6.8 6.7 6.7 6.6 6.6 6.7 6.7 6.8 6.9 7.0
6.0 6.2 6.1 6.7 7.4 8.0 8.0 7.6 7.7 7.6 8.0 7.4 7.2 7.0 7.1 7.1 7.0 7.2 7.7 7.7 7.6 7.4 7.4 7.3 7.5 7.5 7.5 7.5 7.5 7.5 7.5 7.5 7.4 7.3 7.3 7.4 7.3 7.2 7.2 7.3 7.4 7.3 7.2 7.1 7.1 7.2 7.2 7.2 7.3
6.3 6.1 6.4 6.8 7.5 7.8 7.9 7.9 7.9 7.9 8.1 7.7 7.5 7.3 7.1 6.9 6.9 7.2 7.7 7.9 7.7 7.3 7.5 7.6 7.7 7.7 7.6 7.6 7.6 7.7 7.6 7.6 7.6 7.5 7.4 7.4 7.4 7.4 7.4 7.1 7.2 7.3 7.2 7.2 7.3 7.3 7.5 7.6 7.6
6.6 6.7 6.9 7.0 7.5 7.8 7.8 7.6 7.7 7.8 7.8 8.1 7.6 7.0 6.8 6.7 6.6 7.0 7.2 7.2 7.3 7.4 7.3 7.1 7.1 7.0 7.3 7.6 7.5 7.5 7.5 7.6 7.7 7.8 7.8 7.7 7.6 7.5 7.4 7.4 7.4 7.3 7.2 7.3 7.2 7.3 7.4 7.5 7.5
6.7 6.6 7.1 7.3 7.1 6.9 7.1 7.6 7.8 7.9 7.6 7.7 7.9 7.4 6.6 6.4 6.4 6.7 6.9 7.0 6.8 6.6 7.0 6.9 7.1 7.1 7.1 7.0 7.2 7.2 7.3 7.3 7.3 7.4 7.6 7.8 7.8 7.7 7.8 7.7 7.7 7.6 7.5 7.5 7.5 7.5 7.6 7.5 7.6
6.5 6.8 7.6 7.9 7.7 7.6 7.8 8.0 7.6 7.3 7.3 7.5 7.4 7.3 7.2 6.9 6.9 7.0 7.1 7.2 7.1 6.8 6.7 6.8 6.7 6.7 6.7 6.7 6.8 6.9 7.0 7.3 7.4 7.5 7.4 7.7 7.9 7.9 7.9 8.0 7.7 7.6 7.6 7.6 7.5 7.5 7.5 7.6 7.7
6.2 6.8 7.3 8.0 7.8 6.9 7.0 7.3 7.2 7.2 7.2 7.4 7.6 7.5 7.3 7.3 7.1 6.9 7.1 7.1 7.2 7.2 7.0 6.6 6.7 6.4 6.5 6.5 6.8 6.8 6.9 7.3 7.3 7.4 7.6 7.6 7.9 8.2 8.1 8.0 7.9 7.7 7.6 7.6 7.4 7.5 7.6 7.7 7.7
6.1 6.7 6.4 6.8 6.9 6.8 6.7 6.8 6.5 6.8 7.0 7.1 7.3 7.5 7.4 7.3 7.3 7.4 7.2 7.1 7.0 6.8 6.8 7.0 6.9 6.6 6.6 6.6 6.6 6.8 6.8 7.1 7.4 7.2 7.6 7.7 7.8 7.9 7.8 7.8 7.8 7.8 7.6 7.6 7.4 7.5 7.5 7.6 7.6
6.1 6.1 6.1 6.3 6.5 6.4 6.6 6.5 6.6 6.9 6.9 6.8 6.8 7.0 7.3 7.4 7.4 7.4 7.3 7.3 7.0 6.7 6.7 6.5 6.8 6.8 6.5 6.7 6.9 6.9 7.1 7.2 7.3 7.4 7.5 7.8 7.8 7.7 7.5 7.6 8.0 7.9 7.8 7.7 7.6 7.4 7.3 7.3 7.4
6.0 6.0 6.2 6.6 6.6 6.9 6.8 6.4 6.8 6.6 6.8 6.9 7.2 7.5 7.5 7.3 7.3 7.2 7.1 6.9 7.0 6.8 6.5 6.8 6.8 6.9 6.6 6.8 7.0 6.7 6.9 7.0 7.3 7.5 7.6 7.6 7.9 7.6 7.4 7.6 7.9 7.8 7.6 7.5 7.4 7.2 7.1 7.3 7.3
6.2 6.1 6.4 7.1 7.3 7.2 7.0 6.7 7.4 7.7 7.2 6.8 7.3 7.4 7.3 7.3 7.2 7.1 7.1 7.0 6.9 6.8 6.7 6.7 6.8 7.1 7.1 7.1 7.1 7.2 7.1 7.0 7.2 7.2 7.3 7.5 7.4 7.4 7.3 7.1 7.3 7.3 7.1 7.4 7.3 7.0 6.7 7.2 7.5
6.9 6.8 7.0 7.5 7.7 7.3 7.1 6.7 7.0 7.0 6.8 7.0 7.2 7.2 7.4 7.4 7.5 7.3 7.4 7.2 7.1 7.1 7.0 6.8 6.9 7.0 7.2 7.2 7.1 7.1 7.0 6.9 6.8 6.9 6.9 7.1 7.2 7.2 7.2 7.1 7.3 7.3 7.3 7.3 7.3 7.2 7.0 7.2 7.3
7.2 7.1 7.2 7.8 7.9 7.4 7.1 6.8 6.8 7.2 7.0 7.2 7.5 7.3 7.0 7.4 7.7 7.6 7.5 7.5 7.4 7.3 7.1 7.1 7.0 7.0 6.9 6.9 6.9 7.0 7.0 7.0 6.8 6.8 6.7 6.7 7.0 7.1 7.2 7.2 6.8 6.9 6.7 6.8 7.0 6.7 6.8 7.4 7.6
7.1 7.1 7.0 7.7 7.9 7.1 7.3 6.9 6.9 7.1 7.4 7.3 7.8 7.6 7.2 7.2 7.6 7.5 7.3 7.2 7.4 7.3 7.3 7.2 7.2 7.2 7.0 7.0 7.1 7.2 7.2 7.1 7.0 6.9 6.8 6.7 6.9 7.0 7.0 7.1 7.0 5.9 6.7 6.4 6.5 6.8 6.6 6.7 7.1
6.8 6.9 7.3 7.2 7.9 7.6 7.3 7.0 7.1 7.4 7.4 7.4 7.5 7.3 7.2 7.3 7.3 7.5 7.3 7.2 7.1 7.1 7.2 7.2 7.1 7.1 7.1 7.1 7.1 7.2 7.2 7.3 7.2 7.0 7.0 7.1 6.9 6.8 6.7 6.9 6.9 7.0 6.6 6.3 6.2 5.5 5.6 5.9 6.2
6.5 6.9 7.0 7.1 7.1 7.3 7.4 6.3 7.1 7.4 7.6 7.7 7.7 7.5 7.5 7.6 7.6 7.6 7.5 7.4 7.1 7.1 7.1 7.0 7.0 7.2 7.2 7.3 7.4 7.4 7.3 7.2 7.1 7.0 7.0 6.9 6.9 6.7 6.5 6.4 6.3 6.4 6.6 6.4 6.2 5.9 6.1 6.4 6.4
6.7 7.1 7.2 7.4 6.8 7.0 7.1 7.1 6.9 7.3 7.6 7.8 7.8 7.6 7.7 7.6 7.4 7.8 7.9 7.9 7.7 7.5 7.4 7.3 7.3 7.2 7.2 7.3 7.4 7.3 7.3 7.4 7.5 7.3 7.0 6.8 6.5 6.5 6.6 6.4 6.2 6.1 6.1 6.4 6.4 6.3 6.0 5.9 6.0
7.1 7.2 7.4 7.3 7.2 6.3 7.3 7.3 6.8 7.3 7.5 7.7 7.9 7.7 7.6 7.4 7.5 7.4 7.8 8.1 8.1 7.9 7.7 7.5 7.3 7.3 7.2 7.3 7.5 7.7 7.5 7.5 7.6 7.6 7.5 7.2 7.0 6.7 6.5 6.1 6.1 6.1 6.0 6.0 6.2 6.1 5.9 6.0 6.1
7.3 7.5 6.9 6.4 6.1 5.4 7.4 7.1 7.0 7.5 7.6 7.5 7.4 7.6 7.6 7.6 7.6 7.7 8.1 8.4 8.3 8.1 8.0 7.9 7.7 7.3 7.2 7.3 7.3 7.5 7.6 7.4 7.3 7.1 7.0 6.9 6.9 6.8 6.6 6.2 5.7 5.6 5.7 5.8 6.0 6.1 6.3 6.2 6.0
7.4 7.6 7.3 6.0 5.4 5.8 6.9 7.0 7.4 7.3 7.4 7.4 7.2 7.1 7.3 7.5 7.4 7.3 7.5 7.6 7.4 7.3 7.3 7.1 7.2 7.5 7.5 7.3 7.0 7.0 7.1 7.3 7.2 6.8 6.5 6.5 6.3 6.2 6.0 6.0 6.0 5.4 5.0 5.0 5.3 5.6 5.8 5.8 5.7
7.3 7.3 7.0 6.9 6.5 6.1 7.0 7.4 7.6 7.5 7.7 7.3 7.2 7.1 7.2 7.1 7.2 7.1 6.9 6.8 7.0 7.0 6.9 7.1 7.1 7.0 7.0 6.9 7.0 7.1 7.2 7.3 7.3 6.9 6.6 6.8 6.5 6.1 5.5 5.2 5.2 5.6 5.6 5.2 4.9 4.9 5.1 5.3 5.4
7.4 7.3 7.3 7.2 6.0 5.6 5.9 6.6 7.1 7.3 7.6 7.4 7.0 6.7 6.5 6.5 6.5 6.5 6.2 6.3 6.7 7.1 7.2 6.8 6.6 6.5 6.5 6.7 6.9 7.0 6.9 6.9 6.6 6.6 6.9 6.9 6.6 6.4 5.8 5.4 4.8 4.6 4.7 4.6 4.7 4.7 4.6 4.8 5.1
6.8 6.7 6.6 6.7 6.6 4.8 5.1 6.2 6.8 6.8 6.9 7.1 7.0 7.0 7.2 6.3 6.4 6.2 6.1 6.1 6.1 6.1 6.2 6.3 6.4 6.6 6.6 6.7 6.6 7.0 6.8 6.5 6.3 6.0 6.0 6.5 6.6 6.0 5.5 5.3 5.1 4.8 4.5 4.4 4.2 4.0 4.1 4.4 4.7
6.6 6.3 6.2 6.2 5.8 5.8 5.7 5.9 6.4 6.4 6.5 6.5 6.4 6.4 6.5 6.3 6.2 6.2 6.2 6.2 6.4 6.5 6.4 6.2 5.7 6.0 6.4 6.7 6.6 6.5 6.3 6.4 6.2 6.1 6.0 5.6 5.3 5.2 5.2 5.0 5.1 4.8 4.5 4.6 4.6 4.7 4.6 4.3 4.5
Wind_Speed
9 14 0 4 3 5 3 6 3 5 7 5 5 3 4 2 2 3 1 4 18 15 16 16 16 18 20 20 20 20 20 20 21 21 21 20 19 17 16 15 14 14 13 13 12 12 12 12 11
6 5 4 3 4 2 5 5 7 6 5 6 3 3 5 2 3 6 7 7 14 14 15 16 17 18 20 19 19 19 19 19 19 19 19 18 17 16 16 15 14 14 13 13 13 13 12 12 11
5 2 3 4 3 5 5 3 6 7 15 5 5 3 2 1 3 8 7 15 12 10 13 17 19 18 21 20 19 18 18 18 18 18 18 17 15 14 14 13 13 14 14 14 14 14 13 12 10
3 4 4 4 6 6 4 7 6 10 9 2 4 5 4 2 7 7 14 16 14 10 12 19 20 18 20 21 20 19 18 17 17 17 18 17 17 15 14 13 12 12 13 13 12 11 10 9 8
4 3 3 2 6 5 5 6 6 8 7 2 7 3 2 3 10 17 15 14 14 10 10 17 19 19 20 20 20 19 19 18 18 18 18 17 16 15 14 14 13 12 12 11 11 11 10 9 8
3 3 3 4 6 4 6 7 4 4 5 2 5 6 1 5 13 12 15 13 12 12 9 13 17 17 18 19 20 19 19 19 18 18 18 16 16 15 14 13 14 14 13 12 11 9 9 10 10
5 4 5 4 4 5 4 5 6 5 7 4 8 5 2 6 5 13 13 11 12 11 11 9 12 14 16 18 19 19 19 19 18 18 18 17 16 14 13 12 12 10 10 10 11 11 10 10 10
4 4 4 5 5 7 4 5 4 4 7 2 5 6 6 6 9 8 7 6 7 9 11 12 14 16 14 14 17 18 18 18 17 16 16 15 14 13 13 13 12 11 12 11 10 9 10 11 11
4 2 4 6 6 4 5 8 6 5 0 4 5 4 6 13 13 8 8 5 4 6 6 8 10 11 13 12 15 16 17 17 17 17 16 15 12 13 13 12 13 12 12 11 11 10 10 10 10
4 5 8 5 3 5 5 2 4 6 8 6 4 9 8 13 17 14 11 11 9 11 8 8 9 11 12 13 13 13 14 12 12 12 11 11 11 12 10 9 11 11 11 11 12 12 11 10 10
5 5 4 6 7 4 4 7 2 6 3 3 1 2 7 5 5 7 10 12 17 11 9 10 8 8 10 9 10 10 11 10 11 12 12 10 8 8 9 9 10 12 12 10 10 10 10 9 10
2 5 5 4 6 4 5 6 5 3 6 5 5 1 2 11 7 10 9 9 8 9 11 11 9 8 9 6 6 7 8 10 9 14 13 9 5 5 5 5 8 6 8 6 9 6 9 11 10
3 4 6 8 9 6 5 8 7 7 11 7 6 3 6 6 7 7 9 10 12 10 10 12 12 11 9 5 6 5 8 6 11 13 15 14 7 6 6 5 6 8 9 8 4 5 5 5 7
6 7 9 5 9 5 5 11 8 8 11 8 6 8 7 9 10 6 8 7 10 14 14 13 14 12 9 7 6 5 4 8 9 10 11 14 11 6 6 5 6 6 9 9 6 4 4 4 4
4 3 5 5 7 7 7 7 7 12 7 8 8 9 9 8 8 10 10 9 9 8 10 15 16 12 11 8 6 5 5 7 6 7 12 14 14 7 4 4 5 5 9 9 7 4 3 4 5
2 4 1 5 2 6 9 7 7 10 7 11 11 9 8 9 9 10 8 8 9 5 10 11 11 11 7 8 6 5 5 4 6 6 7 11 13 12 6 5 7 7 8 6 5 4 5 6 5
5 2 3 6 3 1 3 5 9 6 8 11 11 10 8 9 8 10 10 9 10 13 8 9 8 11 10 7 6 6 6 5 5 4 5 5 11 11 6 7 7 8 5 6 6 4 6 5 5
5 2 2 5 3 3 7 9 9 8 7 13 11 8 8 9 13 11 11 8 9 9 9 8 8 9 9 5 3 3 4 5 4 4 5 8 9 10 8 7 4 4 5 6 3 7 5 7 7
2 3 5 5 3 2 8 6 8 9 5 9 8 8 10 10 12 9 7 5 7 5 7 9 9 10 8 3 3 2 4 2 3 4 6 10 10 12 9 6 5 5 5 8 7 5 7 6 3
4 3 6 9 6 6 7 8 9 6 5 6 8 8 10 7 8 8 7 7 9 11 12 8 9 7 5 4 3 3 4 3 2 3 3 4 5 8 8 7 8 7 6 8 8 5 5 5 5
5 4 6 8 6 2 3 6 5 5 5 7 4 5 6 8 9 10 8 8 6 9 9 10 10 9 6 5 2 3 4 4 3 3 3 3 4 1 6 7 7 9 9 6 3 3 7 9 5
7 8 14 8 2 4 2 5 5 5 8 5 9 9 9 9 9 11 9 8 10 7 7 7 7 6 3 5 3 3 3 3 1 2 1 3 4 5 3 4 4 5 4 6 9 9 14 15 14
8 4 8 7 5 3 2 2 7 4 7 7 9 10 10 10 9 9 9 8 3 7 7 6 6 5 3 5 6 5 5 3 3 2 2 0 2 4 6 5 4 5 4 6 7 9 10 8 8
3 3 8 5 3 0 4 4 4 3 3 6 6 8 9 4 7 9 8 7 6 6 8 8 9 6 7 7 7 8 8 5 3 2 2 2 2 1 3 5 5 4 5 5 6 6 7 7 6
6 6 2 3 2 5 1 1 8 3 4 3 4 9 9 8 9 11 11 9 8 7 7 7 8 6 6 6 6 6 7 7 7 5 3 2 0 1 4 3 5 5 5 5 6 6 8 9 7
2 6 5 6 4 3 4 4 3 4 5 6 11 7 9 10 8 8 7 8 6 5 4 4 4 4 4 5 6 5 7 5 5 6 4 4 4 3 4 3 3 5 7 7 6 4 6 7 9
2 3 3 5 2 3 4 6 1 5 8 8 8 9 9 9 9 9 8 4 5 3 1 1 2 3 5 6 5 6 5 4 4 5 5 4 4 3 4 4 4 3 5 7 7 6 7 7 9
4 5 3 3 4 4 4 4 5 2 5 7 8 6 7 7 6 7 7 6 6 1 3 3 5 7 7 8 6 5 6 7 6 5 7 7 6 4 5 4 3 3 3 4 5 5 7 8 8
5 3 5 3 3 5 1 5 3 5 2 5 6 7 8 8 10 4 4 3 4 3 5 7 8 7 7 6 6 7 7 8 7 7 7 7 6 7 7 6 5 5 4 5 5 6 7 7 8
2 3 3 4 4 1 1 5 4 5 4 3 8 8 7 8 9 6 3 2 4 6 3 5 5 6 6 6 5 5 6 7 7 6 6 6 8 6 7 7 7 6 6 6 6 6 6 9 10
Wind_Direction
320 319 80 45 37 59 281 260 268 293 319 312 288 175 161 22 152 208 191 152 133 146 153 157 156 144 134 131 130 129 129 127 128 130 132 133 135 137 136 134 133 138 141 142 145 150 151 153 152
322 328 35 86 90 28 274 249 251 259 260 303 17 49 25 60 91 119 110 141 140 144 151 153 154 147 135 134 133 132 130 131 131 133 132 132 133 138 142 140 142 147 150 152 156 160 162 163 161
318 32 77 95 123 188 234 259 279 286 296 235 161 100 67 112 71 150 135 141 134 144 153 155 151 151 141 141 139 138 138 138 139 139 138 140 143 147 150 150 154 159 162 165 168 170 172 173 174
10 17 36 99 228 257 235 290 303 321 319 256 89 71 75 112 160 145 141 143 142 148 156 156 151 154 148 147 147 146 147 149 149 150 151 154 158 160 160 163 166 171 175 177 177 178 181 185 188
32 65 75 145 255 259 275 292 318 301 283 305 132 118 38 12 108 130 140 147 146 148 157 154 153 157 155 153 154 155 158 160 162 162 164 166 168 169 172 175 180 186 187 187 186 189 192 194 201
43 95 78 232 253 255 289 272 290 299 328 304 77 102 251 132 135 148 151 155 152 149 149 154 157 159 159 158 162 165 166 169 171 171 173 175 176 180 185 188 190 193 193 192 193 200 206 207 212
130 102 204 200 268 283 241 320 306 289 279 247 147 106 114 200 164 157 155 146 150 153 148 150 157 165 166 167 169 172 173 176 179 180 180 180 183 188 191 197 202 207 212 212 207 206 210 217 226
130 111 174 217 207 268 189 329 268 283 293 87 143 169 194 198 143 129 116 124 149 165 164 163 166 172 173 173 178 177 179 183 185 186 186 187 192 196 200 205 211 214 216 220 224 224 230 238 244
108 93 228 209 180 244 332 18 323 292 305 340 325 142 165 129 127 113 121 121 136 171 180 178 172 171 170 170 181 184 189 190 189 191 194 190 193 201 210 218 218 225 229 232 230 233 240 247 260
157 175 214 202 213 270 313 358 308 338 353 352 31 46 69 142 152 153 166 175 182 192 190 186 182 179 174 179 180 181 186 189 193 193 195 193 200 205 210 222 231 240 241 241 251 251 249 254 258
184 217 208 256 268 285 261 299 105 310 316 251 53 47 119 110 137 161 183 186 193 183 184 189 189 185 183 181 174 181 194 190 198 191 188 193 198 210 213 218 225 228 234 239 242 249 252 256 252
203 237 224 256 259 275 264 293 308 224 252 248 192 168 339 139 179 187 188 204 187 185 186 180 187 189 193 182 178 178 191 190 200 207 191 181 188 192 203 207 228 227 228 227 235 242 253 254 258
224 251 256 253 265 247 285 262 252 265 252 225 272 181 198 214 179 188 198 205 195 188 189 189 184 190 190 188 184 184 195 194 202 205 201 194 197 202 205 209 202 217 216 227 230 231 255 264 273
216 233 253 289 272 252 210 264 146 258 243 254 226 256 236 217 230 152 190 199 184 193 189 182 194 189 179 188 181 187 188 199 203 207 206 205 208 206 209 212 217 223 205 220 218 224 235 253 263
229 247 291 244 257 240 177 276 207 238 234 238 252 243 254 242 245 235 197 198 190 202 189 184 192 181 185 184 184 181 188 191 205 205 201 207 209 209 203 210 226 222 203 208 222 230 231 247 243
20 39 333 280 231 264 155 250 262 255 260 263 256 251 242 249 231 237 230 196 200 192 187 195 184 179 169 171 180 183 190 190 209 204 205 203 216 203 191 211 224 204 195 201 210 201 230 244 231
4 199 197 300 222 258 216 285 263 291 251 250 259 258 257 269 259 245 246 179 198 201 188 172 173 173 173 169 174 184 186 200 208 191 221 214 222 212 212 226 231 197 197 214 213 213 214 227 244
206 205 254 217 273 355 312 276 284 279 279 250 247 259 270 267 256 239 236 204 199 191 180 176 170 159 175 178 190 178 185 214 187 199 207 206 218 215 219 235 224 206 209 229 204 218 214 230 240
184 189 251 262 247 276 258 248 279 292 335 290 251 246 257 258 261 249 233 180 152 165 183 184 171 189 163 158 183 185 191 161 200 182 203 213 212 215 216 215 219 196 210 234 217 229 236 254 193
217 251 270 290 262 157 273 258 259 277 283 250 238 253 246 245 257 262 229 188 196 182 194 180 199 175 166 156 168 169 169 185 146 143 149 178 205 208 224 223 227 229 203 224 226 218 254 253 190
246 200 251 223 304 242 301 309 295 294 306 335 311 259 265 251 272 285 262 212 174 176 193 189 183 179 187 175 98 71 61 48 54 34 25 353 352 342 207 217 217 223 230 184 134 323 286 281 276
260 211 232 235 178 245 88 276 298 300 316 306 305 305 282 261 248 249 253 193 195 197 161 165 162 162 163 149 101 93 113 118 156 111 347 339 340 331 341 256 244 231 219 225 203 222 235 241 254
230 303 206 206 185 128 318 80 268 285 307 315 309 309 308 305 290 278 228 202 174 143 136 122 125 115 110 112 119 115 100 113 146 136 138 279 323 325 321 321 251 250 211 236 239 236 235 232 244
294 88 36 49 87 208 230 156 272 261 262 300 322 353 339 20 52 48 39 63 67 97 100 110 119 121 126 127 133 127 131 137 113 96 42 2 343 322 328 322 314 271 257 227 223 234 238 239 226
69 58 345 326 337 220 196 79 242 321 329 276 22 4 360 344 70 80 76 70 61 56 87 108 119 133 149 137 141 148 149 150 152 154 159 159 145 331 329 333 331 316 295 256 242 232 234 235 234
100 145 161 205 208 258 292 237 241 55 6 41 63 40 27 20 14 38 71 104 109 113 106 109 146 161 187 186 191 186 177 170 162 163 175 184 185 188 189 224 276 305 309 305 284 252 248 234 235
176 78 173 104 30 55 263 299 25 42 43 45 42 39 28 16 10 27 19 54 121 106 83 175 194 263 250 252 250 235 222 195 194 191 180 191 200 197 181 184 199 245 281 295 299 295 275 254 241
91 160 75 14 174 233 287 271 236 60 29 31 16 27 357 343 0 31 21 356 345 134 175 225 234 233 240 238 236 241 236 222 221 199 206 209 210 205 214 216 206 232 251 272 290 287 287 288 270
357 16 51 113 137 178 214 251 250 124 82 15 338 340 327 330 303 334 287 207 250 346 354 333 321 309 309 308 281 232 234 228 217 214 223 214 209 205 213 213 227 236 252 274 280 276 275 269 263
162 135 112 126 238 212 166 263 173 159 244 303 315 288 276 277 262 282 337 267 104 87 79 48 14 12 356 331 324 310 326 336 318 293 260 230 221 221 221 215 220 227 233 252 268 272 280 281 274